Time,TemperatureF,DewpointF,PressureIn,WindDirection,WindDirectionDegrees,WindSpeedMPH,WindSpeedGustMPH,Humidity,HourlyPrecipIn,Conditions,Clouds,dailyrainin,SolarRadiationWatts/m^2,SoftwareType,DateUTC
2013-05-20 00:06:00,50.8,46.0,30.35,NNE,30,0.0,-999.0,84,-99.99,,,0.00,0,weatherlink.com 1.10,2013-05-20 07:06:00,
2013-05-20 00:21:00,50.7,46.0,30.35,NNE,30,0.0,-999.0,85,-99.99,,,0.00,0,weatherlink.com 1.10,2013-05-20 07:21:00,
2013-05-20 00:36:00,50.4,46.0,30.35,NNE,30,0.0,-999.0,86,-99.99,,,0.00,0,weatherlink.com 1.10,2013-05-20 07:36:00,
2013-05-20 00:51:00,49.6,46.0,30.36,NNE,30,0.0,-999.0,86,-99.99,,,0.00,0,weatherlink.com 1.10,2013-05-20 07:51:00,
2013-05-20 01:06:00,48.9,45.0,30.36,NNE,30,0.0,-999.0,87,-99.99,,,0.00,0,weatherlink.com 1.10,2013-05-20 08:06:00,
2013-05-20 01:21:00,48.8,45.0,30.36,NNE,30,0.0,-999.0,88,-99.99,,,0.00,0,weatherlink.com 1.10,2013-05-20 08:21:00,
2013-05-20 01:36:00,48.5,45.0,30.36,NNE,30,0.0,-999.0,87,-99.99,,,0.00,0,weatherlink.com 1.10,2013-05-20 08:36:00,
2013-05-20 01:51:00,48.2,45.0,30.36,NNE,30,0.0,-999.0,88,-99.99,,,0.00,0,weatherlink.com 1.10,2013-05-20 08:51:00,
2013-05-20 02:06:00,47.7,45.0,30.36,NNE,30,0.0,-999.0,89,-99.99,,,0.00,0,weatherlink.com 1.10,2013-05-20 09:06:00,
2013-05-20 02:21:00,47.6,45.0,30.36,NNE,30,0.0,-999.0,90,-99.99,,,0.00,0,weatherlink.com 1.10,2013-05-20 09:21:00,
2013-05-20 02:36:00,47.7,45.0,30.36,NNE,30,0.0,-999.0,90,-99.99,,,0.00,0,weatherlink.com 1.10,2013-05-20 09:36:00,
2013-05-20 02:51:00,47.0,44.0,30.36,NNE,30,0.0,-999.0,90,-99.99,,,0.00,0,weatherlink.com 1.10,2013-05-20 09:51:00,
2013-05-20 03:06:00,46.4,44.0,30.36,NNE,30,0.0,-999.0,90,-99.99,,,0.00,0,weatherlink.com 1.10,2013-05-20 10:06:00,
2013-05-20 03:21:00,46.1,44.0,30.35,NNE,30,0.0,-999.0,91,-99.99,,,0.00,0,weatherlink.com 1.10,2013-05-20 10:21:00,
2013-05-20 03:36:00,45.8,43.0,30.35,NNE,30,0.0,-999.0,91,-99.99,,,0.00,0,weatherlink.com 1.10,2013-05-20 10:36:00,
2013-05-20 03:51:00,45.5,43.0,30.35,NNE,30,0.0,-999.0,91,-99.99,,,0.00,0,weatherlink.com 1.10,2013-05-20 10:51:00,
2013-05-20 04:06:00,45.4,43.0,30.35,NNE,30,0.0,-999.0,92,-99.99,,,0.00,0,weatherlink.com 1.10,2013-05-20 11:06:00,
2013-05-20 04:21:00,45.5,43.0,30.35,NNE,30,0.0,-999.0,92,-99.99,,,0.00,0,weatherlink.com 1.10,2013-05-20 11:21:00,
2013-05-20 04:36:00,45.7,44.0,30.34,NNE,30,0.0,-999.0,92,-99.99,,,0.00,0,weatherlink.com 1.10,2013-05-20 11:36:00,
2013-05-20 04:51:00,45.8,44.0,30.33,NNE,30,0.0,-999.0,93,-99.99,,,0.00,0,weatherlink.com 1.10,2013-05-20 11:51:00,
2013-05-20 05:06:00,46.2,44.0,30.33,NNE,30,0.0,-999.0,93,-99.99,,,0.00,0,weatherlink.com 1.10,2013-05-20 12:06:00,
2013-05-20 05:21:00,46.8,45.0,30.32,NNE,30,0.0,-999.0,93,-99.99,,,0.00,0,weatherlink.com 1.10,2013-05-20 12:21:00,
2013-05-20 05:36:00,47.3,45.0,30.32,NNE,30,0.0,-999.0,93,-99.99,,,0.00,5,weatherlink.com 1.10,2013-05-20 12:36:00,
2013-05-20 05:51:00,47.7,46.0,30.31,NNE,30,0.0,-999.0,93,-99.99,,,0.00,9,weatherlink.com 1.10,2013-05-20 12:51:00,
2013-05-20 06:06:00,48.2,46.0,30.31,NNE,30,1.0,-999.0,93,-99.99,,,0.00,14,weatherlink.com 1.10,2013-05-20 13:06:00,
2013-05-20 06:21:00,48.8,47.0,30.31,WNW,289,0.0,-999.0,93,-99.99,,,0.00,21,weatherlink.com 1.10,2013-05-20 13:21:00,
2013-05-20 06:36:00,49.1,47.0,30.30,West,279,0.0,-999.0,93,-99.99,,,0.00,16,weatherlink.com 1.10,2013-05-20 13:36:00,
2013-05-20 06:51:00,49.5,48.0,30.30,West,279,0.0,-999.0,93,-99.99,,,0.00,19,weatherlink.com 1.10,2013-05-20 13:51:00,
2013-05-20 07:06:00,49.6,48.0,30.30,SSE,163,0.0,-999.0,93,-99.99,,,0.00,37,weatherlink.com 1.10,2013-05-20 14:06:00,
2013-05-20 07:21:00,49.8,48.0,30.30,SSE,164,0.0,-999.0,93,-99.99,,,0.00,35,weatherlink.com 1.10,2013-05-20 14:21:00,
2013-05-20 07:36:00,49.9,48.0,30.29,South,170,0.0,-999.0,93,-99.99,,,0.00,39,weatherlink.com 1.10,2013-05-20 14:36:00,
2013-05-20 07:51:00,50.2,48.0,30.28,SSW,211,0.0,-999.0,93,-99.99,,,0.00,56,weatherlink.com 1.10,2013-05-20 14:51:00,
2013-05-20 08:06:00,50.5,49.0,30.28,SSW,211,0.0,-999.0,93,-99.99,,,0.00,62,weatherlink.com 1.10,2013-05-20 15:06:00,
2013-05-20 08:21:00,50.7,49.0,30.28,SSW,211,0.0,-999.0,92,-99.99,,,0.00,54,weatherlink.com 1.10,2013-05-20 15:21:00,
2013-05-20 08:36:00,51.0,49.0,30.28,SSW,211,0.0,-999.0,92,-99.99,,,0.00,67,weatherlink.com 1.10,2013-05-20 15:36:00,
2013-05-20 08:51:00,51.3,49.0,30.28,SSW,211,0.0,-999.0,92,-99.99,,,0.00,91,weatherlink.com 1.10,2013-05-20 15:51:00,
2013-05-20 09:06:00,51.4,49.0,30.27,West,271,3.0,-999.0,91,-99.99,,,0.00,95,weatherlink.com 1.10,2013-05-20 16:06:00,
2013-05-20 09:21:00,51.7,49.0,30.27,West,281,0.0,-999.0,90,-99.99,,,0.00,109,weatherlink.com 1.10,2013-05-20 16:21:00,
2013-05-20 09:36:00,51.9,49.0,30.27,WSW,254,3.0,-999.0,90,-99.99,,,0.00,149,weatherlink.com 1.10,2013-05-20 16:36:00,
2013-05-20 09:51:00,52.2,49.0,30.26,West,275,3.0,-999.0,89,-99.99,,,0.00,160,weatherlink.com 1.10,2013-05-20 16:51:00,
2013-05-20 10:06:00,52.6,49.0,30.25,WSW,246,0.0,-999.0,87,-99.99,,,0.00,214,weatherlink.com 1.10,2013-05-20 17:06:00,
2013-05-20 10:21:00,53.2,49.0,30.24,SE,138,2.0,-999.0,85,-99.99,,,0.00,200,weatherlink.com 1.10,2013-05-20 17:21:00,
2013-05-20 10:36:00,53.8,48.0,30.24,South,178,3.0,-999.0,82,-99.99,,,0.00,369,weatherlink.com 1.10,2013-05-20 17:36:00,
2013-05-20 10:51:00,55.1,48.0,30.23,WSW,251,1.0,-999.0,78,-99.99,,,0.00,504,weatherlink.com 1.10,2013-05-20 17:51:00,
2013-05-20 11:06:00,55.9,48.0,30.22,South,190,2.0,-999.0,76,-99.99,,,0.00,541,weatherlink.com 1.10,2013-05-20 18:06:00,
2013-05-20 11:21:00,57.2,49.0,30.22,WSW,246,0.0,-999.0,74,-99.99,,,0.00,656,weatherlink.com 1.10,2013-05-20 18:21:00,
2013-05-20 11:36:00,57.2,49.0,30.21,SE,146,1.0,-999.0,74,-99.99,,,0.00,346,weatherlink.com 1.10,2013-05-20 18:36:00,
2013-05-20 11:51:00,56.6,48.0,30.20,SSW,209,3.0,-999.0,74,-99.99,,,0.00,336,weatherlink.com 1.10,2013-05-20 18:51:00,
2013-05-20 12:06:00,58.3,49.0,30.20,SE,126,0.0,-999.0,70,-99.99,,,0.00,599,weatherlink.com 1.10,2013-05-20 19:06:00,
2013-05-20 12:21:00,59.2,50.0,30.19,West,267,3.0,-999.0,71,-99.99,,,0.00,969,weatherlink.com 1.10,2013-05-20 19:21:00,
2013-05-20 12:36:00,59.0,49.0,30.19,SW,229,1.0,-999.0,70,-99.99,,,0.00,814,weatherlink.com 1.10,2013-05-20 19:36:00,
2013-05-20 12:51:00,61.2,50.0,30.18,SSE,153,3.0,-999.0,67,-99.99,,,0.00,991,weatherlink.com 1.10,2013-05-20 19:51:00,
2013-05-20 13:06:00,60.5,49.0,30.17,WNW,284,2.0,-999.0,65,-99.99,,,0.00,946,weatherlink.com 1.10,2013-05-20 20:06:00,
2013-05-20 13:21:00,62.1,50.0,30.16,WNW,283,2.0,-999.0,65,-99.99,,,0.00,939,weatherlink.com 1.10,2013-05-20 20:21:00,
2013-05-20 13:36:00,62.0,50.0,30.16,WNW,284,2.0,-999.0,66,-99.99,,,0.00,932,weatherlink.com 1.10,2013-05-20 20:36:00,
2013-05-20 13:51:00,63.5,50.0,30.15,SW,225,7.0,-999.0,61,-99.99,,,0.00,933,weatherlink.com 1.10,2013-05-20 20:51:00,
2013-05-20 14:06:00,63.2,49.0,30.14,WSW,257,5.0,-999.0,61,-99.99,,,0.00,907,weatherlink.com 1.10,2013-05-20 21:06:00,
2013-05-20 14:21:00,64.0,49.0,30.13,SW,236,3.0,-999.0,59,-99.99,,,0.00,895,weatherlink.com 1.10,2013-05-20 21:21:00,
2013-05-20 14:36:00,64.7,48.0,30.12,SW,223,1.0,-999.0,55,-99.99,,,0.00,882,weatherlink.com 1.10,2013-05-20 21:36:00,
2013-05-20 14:51:00,63.9,47.0,30.11,WSW,238,2.0,-999.0,55,-99.99,,,0.00,868,weatherlink.com 1.10,2013-05-20 21:51:00,
2013-05-20 15:06:00,66.0,51.0,30.10,WNW,294,4.0,-999.0,58,-99.99,,,0.00,907,weatherlink.com 1.10,2013-05-20 22:06:00,
2013-05-20 15:36:00,66.3,48.0,30.08,SSW,202,2.0,-999.0,52,-99.99,,,0.00,765,weatherlink.com 1.10,2013-05-20 22:36:00,
2013-05-20 15:51:00,66.3,48.0,30.08,SW,235,4.0,-999.0,53,-99.99,,,0.00,738,weatherlink.com 1.10,2013-05-20 22:51:00,
2013-05-20 16:06:00,66.3,49.0,30.07,SSW,202,2.0,-999.0,54,-99.99,,,0.00,766,weatherlink.com 1.10,2013-05-20 23:06:00,
2013-05-20 16:21:00,66.3,49.0,30.05,SSE,161,2.0,-999.0,54,-99.99,,,0.00,519,weatherlink.com 1.10,2013-05-20 23:21:00,
2013-05-20 16:36:00,66.9,48.0,30.05,South,180,0.0,-999.0,50,-99.99,,,0.00,615,weatherlink.com 1.10,2013-05-20 23:36:00,
2013-05-20 16:51:00,66.4,45.0,30.04,SSW,202,1.0,-999.0,47,-99.99,,,0.00,601,weatherlink.com 1.10,2013-05-20 23:51:00,
2013-05-20 17:06:00,66.6,46.0,30.03,SW,234,2.0,-999.0,48,-99.99,,,0.00,563,weatherlink.com 1.10,2013-05-21 00:06:00,
2013-05-20 17:21:00,66.6,46.0,30.02,West,268,3.0,-999.0,48,-99.99,,,0.00,420,weatherlink.com 1.10,2013-05-21 00:21:00,
2013-05-20 17:36:00,67.3,45.0,30.02,SW,222,2.0,-999.0,45,-99.99,,,0.00,501,weatherlink.com 1.10,2013-05-21 00:36:00,
2013-05-20 17:51:00,66.8,45.0,30.00,NNW,338,0.0,-999.0,45,-99.99,,,0.00,417,weatherlink.com 1.10,2013-05-21 00:51:00,
2013-05-20 18:06:00,66.1,43.0,30.00,SW,228,1.0,-999.0,44,-99.99,,,0.00,281,weatherlink.com 1.10,2013-05-21 01:06:00,
2013-05-20 18:21:00,65.6,45.0,29.99,ESE,118,1.0,-999.0,47,-99.99,,,0.00,127,weatherlink.com 1.10,2013-05-21 01:21:00,
2013-05-20 18:36:00,65.5,43.0,29.98,SW,229,2.0,-999.0,45,-99.99,,,0.00,88,weatherlink.com 1.10,2013-05-21 01:36:00,
2013-05-20 18:51:00,65.2,43.0,29.97,NW,310,2.0,-999.0,45,-99.99,,,0.00,72,weatherlink.com 1.10,2013-05-21 01:51:00,
2013-05-20 19:06:00,65.0,44.0,29.97,SSW,212,0.0,-999.0,47,-99.99,,,0.00,67,weatherlink.com 1.10,2013-05-21 02:06:00,
2013-05-20 19:21:00,63.7,48.0,29.97,NW,304,3.0,-999.0,57,-99.99,,,0.00,56,weatherlink.com 1.10,2013-05-21 02:21:00,
2013-05-20 19:36:00,61.8,48.0,29.97,NNW,348,1.0,-999.0,62,-99.99,,,0.00,63,weatherlink.com 1.10,2013-05-21 02:36:00,
2013-05-20 19:51:00,60.5,49.0,29.96,WNW,293,0.0,-999.0,65,-99.99,,,0.00,37,weatherlink.com 1.10,2013-05-21 02:51:00,
2013-05-20 20:06:00,59.5,48.0,29.96,WNW,298,0.0,-999.0,67,-99.99,,,0.00,14,weatherlink.com 1.10,2013-05-21 03:06:00,
2013-05-20 20:21:00,58.1,48.0,29.96,WNW,294,0.0,-999.0,69,-99.99,,,0.00,12,weatherlink.com 1.10,2013-05-21 03:21:00,
2013-05-20 20:36:00,57.2,47.0,29.96,NW,309,0.0,-999.0,70,-99.99,,,0.00,5,weatherlink.com 1.10,2013-05-21 03:36:00,
2013-05-20 20:51:00,57.0,47.0,29.96,NW,311,1.0,-999.0,70,-99.99,,,0.00,0,weatherlink.com 1.10,2013-05-21 03:51:00,
2013-05-20 21:06:00,56.7,47.0,29.95,NW,319,1.0,-999.0,70,-99.99,,,0.00,0,weatherlink.com 1.10,2013-05-21 04:06:00,
2013-05-20 21:21:00,56.3,47.0,29.95,NE,52,0.0,-999.0,70,-99.99,,,0.00,0,weatherlink.com 1.10,2013-05-21 04:21:00,
2013-05-20 21:36:00,55.7,46.0,29.95,NE,46,3.0,-999.0,71,-99.99,,,0.00,0,weatherlink.com 1.10,2013-05-21 04:36:00,
2013-05-20 21:51:00,55.3,46.0,29.94,NE,44,0.0,-999.0,71,-99.99,,,0.00,0,weatherlink.com 1.10,2013-05-21 04:51:00,
2013-05-20 22:06:00,54.8,46.0,29.94,NE,49,0.0,-999.0,72,-99.99,,,0.00,0,weatherlink.com 1.10,2013-05-21 05:06:00,
2013-05-20 22:21:00,54.5,46.0,29.94,NE,47,0.0,-999.0,72,-99.99,,,0.00,0,weatherlink.com 1.10,2013-05-21 05:21:00,
2013-05-20 22:36:00,54.2,46.0,29.93,ENE,76,1.0,-999.0,73,-99.99,,,0.00,0,weatherlink.com 1.10,2013-05-21 05:36:00,
2013-05-20 22:51:00,54.1,46.0,29.91,NE,46,2.0,-999.0,74,-99.99,,,0.00,0,weatherlink.com 1.10,2013-05-21 05:51:00,
2013-05-20 23:06:00,53.9,46.0,29.91,NE,55,0.0,-999.0,75,-99.99,,,0.00,0,weatherlink.com 1.10,2013-05-21 06:06:00,
2013-05-20 23:21:00,53.3,46.0,29.91,NE,55,0.0,-999.0,77,-99.99,,,0.00,0,weatherlink.com 1.10,2013-05-21 06:21:00,
2013-05-20 23:36:00,52.9,46.0,29.91,NE,55,0.0,-999.0,77,-99.99,,,0.00,0,weatherlink.com 1.10,2013-05-21 06:36:00,
2013-05-20 23:51:00,53.2,46.0,29.91,NE,44,0.0,-999.0,77,-99.99,,,0.00,0,weatherlink.com 1.10,2013-05-21 06:51:00,